When you browse on this site, cookies collect data to enhance your experience and personalize the content and advertising you see.
Visit our Privacy Policy to learn more. By continuing to use the site, you agree to this use of cookies and data.
  • In Hungary
  • List of Countries
  • For 7 days
  • Water Temperature
  • Satellite Maps
  • Weather Map
  • News
  • Weather Widgets
  • user-avatar
    Login

    Hourly Weather Hasselt

    Today, 20 January, Sunday

    Time Temperature Precipitation Wind Pressure Humidity
    00:00 -3°C° 0 mm 2 mps 757 mmHg 70%
    01:00 -3°C° 0 mm 2 mps 757 mmHg 70%
    02:00 -3°C° 0 mm 2 mps 757 mmHg 69%
    03:00 -3°C° 0 mm 2 mps 757 mmHg 68%
    04:00 -3°C° 0 mm 2 mps 757 mmHg 68%
    05:00 -3°C° 0 mm 2 mps 757 mmHg 67%
    06:00 -4°C° 0 mm 2 mps 757 mmHg 66%
    07:00 -3°C° 0 mm 2 mps 758 mmHg 64%
    08:00 -3°C° 0 mm 2 mps 758 mmHg 61%
    09:00 -2°C° 0 mm 2 mps 758 mmHg 59%
    10:00 -1°C° 0 mm 3 mps 759 mmHg 55%
    11:00 0°C° 0 mm 3 mps 759 mmHg 51%
    12:00 +1°C° 0 mm 3 mps 759 mmHg 46%
    13:00 +1°C° 0 mm 3 mps 759 mmHg 48%
    14:00 +1°C° 0 mm 3 mps 759 mmHg 50%
    15:00 0°C° 0 mm 3 mps 759 mmHg 51%
    16:00 -1°C° 0 mm 2 mps 760 mmHg 54%
    17:00 -2°C° 0 mm 2 mps 760 mmHg 57%
    18:00 -3°C° 0 mm 2 mps 761 mmHg 60%
    19:00 -3°C° 0 mm 2 mps 761 mmHg 60%
    20:00 -3°C° 0 mm 2 mps 762 mmHg 59%
    21:00 -1°C° 0 mm 1 mps 763 mmHg 59%
    22:00 -1°C° 0 mm 1 mps 763 mmHg 58%
    23:00 -1°C° 0 mm 1 mps 763 mmHg 58%

    Tomorrow, 21 January, Monday

    Time Temperature Precipitation Wind Pressure Humidity
    00:00 -1°C° 0 mm 1 mps 763 mmHg 58%
    01:00 -1°C° 0 mm 1 mps 764 mmHg 58%
    02:00 -2°C° 0 mm 0 mps 764 mmHg 58%
    03:00 -2°C° 0 mm 0 mps 764 mmHg 58%
    04:00 -2°C° 0 mm 0 mps 764 mmHg 58%
    05:00 -2°C° 0 mm 0 mps 764 mmHg 58%
    06:00 -3°C° 0 mm 0 mps 764 mmHg 58%
    07:00 -2°C° 0 mm 0 mps 764 mmHg 56%
    08:00 -2°C° 0 mm 0 mps 764 mmHg 54%
    09:00 -1°C° 0 mm 0 mps 764 mmHg 52%
    10:00 0°C° 0 mm 0 mps 764 mmHg 49%
    11:00 +2°C° 0 mm 1 mps 764 mmHg 45%
    12:00 +3°C° 0 mm 1 mps 763 mmHg 41%
    13:00 +3°C° 0 mm 1 mps 763 mmHg 43%
    14:00 +2°C° 0 mm 1 mps 763 mmHg 45%
    15:00 +2°C° 0 mm 1 mps 762 mmHg 47%
    16:00 +1°C° 0 mm 1 mps 762 mmHg 49%
    17:00 0°C° 0 mm 1 mps 762 mmHg 52%
    18:00 -1°C° 0 mm 1 mps 762 mmHg 54%
    19:00 -3°C° 0 mm 2 mps 761 mmHg 54%
    20:00 -3°C° 0 mm 2 mps 761 mmHg 54%
    21:00 -4°C° 0 mm 3 mps 760 mmHg 54%
    22:00 -4°C° 0 mm 3 mps 759 mmHg 53%
    23:00 -4°C° 0 mm 3 mps 759 mmHg 52%

    Day after tomorrow, 22 January, Tuesday

    Time Temperature Precipitation Wind Pressure Humidity
    00:00 -4°C° 0 mm 4 mps 758 mmHg 52%
    01:00 -3°C° 0 mm 4 mps 757 mmHg 51%
    02:00 -4°C° 0 mm 5 mps 756 mmHg 51%
    03:00 -4°C° 0 mm 5 mps 755 mmHg 50%
    04:00 -4°C° 0 mm 5 mps 754 mmHg 50%
    05:00 -3°C° 0 mm 6 mps 753 mmHg 50%
    06:00 -3°C° 0 mm 6 mps 752 mmHg 50%
    07:00 -3°C° 0 mm 7 mps 751 mmHg 48%
    08:00 -2°C° 0 mm 7 mps 750 mmHg 46%
    09:00 -2°C° 0 mm 7 mps 749 mmHg 44%
    10:00 -2°C° 0.3 mm 7 mps 749 mmHg 52%
    11:00 -2°C° 0.3 mm 7 mps 748 mmHg 61%
    12:00 -2°C° 0.3 mm 6 mps 748 mmHg 69%
    13:00 -2°C° 0.2 mm 6 mps 747 mmHg 73%
    14:00 -1°C° 0.2 mm 5 mps 747 mmHg 76%
    15:00 -1°C° 0.2 mm 5 mps 746 mmHg 80%
    16:00 -2°C° 0.4 mm 4 mps 746 mmHg 84%
    17:00 -2°C° 0.4 mm 4 mps 746 mmHg 88%
    18:00 -1°C° 0.4 mm 3 mps 746 mmHg 92%
    19:00 -1°C° 0.3 mm 3 mps 746 mmHg 93%
    20:00 -1°C° 0.3 mm 3 mps 746 mmHg 94%
    21:00 -1°C° 0.3 mm 2 mps 746 mmHg 95%
    22:00 -1°C° 0.1 mm 2 mps 746 mmHg 94%
    23:00 -1°C° 0.1 mm 2 mps 745 mmHg 94%

    23 January, Wednesday

    Time Temperature Precipitation Wind Pressure Humidity
    00:00 -1°C° 0.1 mm 2 mps 745 mmHg 93%
    01:00 -1°C° 0.1 mm 2 mps 745 mmHg 93%
    02:00 -1°C° 0.1 mm 2 mps 745 mmHg 92%
    03:00 -2°C° 0.1 mm 2 mps 745 mmHg 92%
    04:00 -2°C° 0 mm 2 mps 745 mmHg 92%
    05:00 -3°C° 0 mm 2 mps 746 mmHg 92%
    06:00 -3°C° 0 mm 2 mps 746 mmHg 93%
    07:00 -3°C° 0 mm 2 mps 746 mmHg 91%
    08:00 0°C° 0 mm 1 mps 746 mmHg 90%
    09:00 0°C° 0 mm 1 mps 747 mmHg 89%
    10:00 -1°C° 0 mm 2 mps 747 mmHg 87%
    11:00 +1°C° 0 mm 2 mps 747 mmHg 86%
    12:00 +2°C° 0 mm 2 mps 747 mmHg 84%
    13:00 +2°C° 0 mm 2 mps 748 mmHg 86%
    14:00 +2°C° 0 mm 2 mps 748 mmHg 89%
    15:00 +1°C° 0 mm 2 mps 748 mmHg 91%
    16:00 +1°C° 0 mm 2 mps 749 mmHg 92%
    17:00 -1°C° 0 mm 2 mps 750 mmHg 93%
    18:00 -2°C° 0 mm 2 mps 750 mmHg 94%
    19:00 -2°C° 0.1 mm 2 mps 751 mmHg 94%
    20:00 -1°C° 0.1 mm 2 mps 751 mmHg 94%
    21:00 -1°C° 0.1 mm 2 mps 752 mmHg 94%
    22:00 -2°C° 0 mm 2 mps 752 mmHg 94%
    23:00 -2°C° 0 mm 2 mps 752 mmHg 94%

    24 January, Thursday

    Time Temperature Precipitation Wind Pressure Humidity
    00:00 -2°C° 0 mm 2 mps 752 mmHg 93%
    01:00 -2°C° 0 mm 2 mps 752 mmHg 93%
    02:00 -2°C° 0 mm 2 mps 752 mmHg 93%
    03:00 -3°C° 0 mm 2 mps 753 mmHg 93%
    04:00 -3°C° 0 mm 2 mps 753 mmHg 93%
    05:00 -3°C° 0 mm 2 mps 753 mmHg 93%
    06:00 -3°C° 0 mm 2 mps 753 mmHg 93%
    07:00 -2°C° 0 mm 2 mps 753 mmHg 91%
    08:00 -2°C° 0 mm 2 mps 754 mmHg 89%
    09:00 -2°C° 0 mm 2 mps 754 mmHg 88%
    10:00 -1°C° 0 mm 2 mps 754 mmHg 85%
    11:00 +1°C° 0 mm 2 mps 754 mmHg 82%
    12:00 +2°C° 0 mm 2 mps 754 mmHg 79%
    13:00 +1°C° 0 mm 2 mps 754 mmHg 81%
    14:00 +2°C° 0 mm 1 mps 754 mmHg 83%
    15:00 +2°C° 0 mm 1 mps 754 mmHg 84%
    16:00 +1°C° 0 mm 1 mps 754 mmHg 86%
    17:00 0°C° 0 mm 1 mps 755 mmHg 88%
    18:00 -1°C° 0 mm 1 mps 756 mmHg 89%
    19:00 -1°C° 0 mm 1 mps 756 mmHg 89%
    20:00 -1°C° 0 mm 1 mps 757 mmHg 89%
    21:00 -1°C° 0 mm 1 mps 757 mmHg 89%
    22:00 -1°C° 0 mm 1 mps 758 mmHg 90%
    23:00 -1°C° 0 mm 1 mps 758 mmHg 90%

    25 January, Friday

    Time Temperature Precipitation Wind Pressure Humidity
    00:00 -1°C° 0 mm 1 mps 758 mmHg 90%
    01:00 -1°C° 0 mm 1 mps 759 mmHg 91%
    02:00 -1°C° 0 mm 1 mps 759 mmHg 91%
    03:00 -1°C° 0 mm 1 mps 759 mmHg 92%
    04:00 -1°C° 0 mm 1 mps 760 mmHg 93%
    05:00 -1°C° 0 mm 1 mps 761 mmHg 93%
    06:00 -1°C° 0 mm 1 mps 761 mmHg 93%
    07:00 -1°C° 0 mm 1 mps 762 mmHg 92%
    08:00 -1°C° 0 mm 1 mps 762 mmHg 91%
    09:00 0°C° 0 mm 1 mps 763 mmHg 89%
    10:00 +1°C° 0 mm 1 mps 763 mmHg 87%
    11:00 +2°C° 0 mm 1 mps 763 mmHg 84%
    12:00 +3°C° 0 mm 1 mps 763 mmHg 81%
    13:00 +3°C° 0 mm 1 mps 763 mmHg 83%
    14:00 +3°C° 0 mm 1 mps 763 mmHg 86%
    15:00 +2°C° 0 mm 1 mps 764 mmHg 88%
    16:00 +2°C° 0 mm 1 mps 764 mmHg 89%
    17:00 +1°C° 0 mm 1 mps 764 mmHg 91%
    18:00 0°C° 0 mm 1 mps 765 mmHg 92%
    19:00 -2°C° 0 mm 2 mps 765 mmHg 92%
    20:00 -2°C° 0 mm 2 mps 765 mmHg 91%
    21:00 -3°C° 0 mm 2 mps 765 mmHg 90%
    22:00 -3°C° 0 mm 2 mps 765 mmHg 90%
    23:00 -3°C° 0 mm 2 mps 765 mmHg 90%
    Show more